Location: Marse
(42.1502°N, 110.9866°W)
Time: 08:54:09
(UTC+00:00)

DUCHIFAT 1 - Visible Passes

Search period start: 25 June 2022 00:00
Search period end: 05 July 2022 00:00
Orbit: 579 x 598 km, 98.0° (Epoch: 24 June)

Date Brightness Start Highest point End Pass type
(mag) Time Alt. Az. Time Alt. Az. Time Alt. Az.
25 Jun ? 09:44:37 10° NNE 09:48:45 57° E 09:51:14 23° S visible
26 Jun ? 09:52:13 10° NNE 09:56:24 70° ESE 09:58:57 23° S visible
27 Jun ? 09:59:50 10° NNE 10:04:03 85° ESE 10:06:40 23° SSW visible
28 Jun ? 10:07:28 10° N 10:11:40 79° WNW 10:14:22 22° SSW visible
29 Jun ? 08:42:22 10° ENE 08:43:24 11° E 08:44:28 10° ESE visible
29 Jun ? 10:15:07 10° N 10:19:16 65° WNW 10:22:03 20° SSW visible
30 Jun ? 08:49:04 10° ENE 08:51:07 13° E 08:53:08 10° ESE visible
30 Jun ? 10:22:47 10° N 10:26:53 53° WNW 10:29:45 18° SW visible
01 Jul ? 08:56:11 10° NE 08:58:48 16° E 09:00:55 12° SE visible
01 Jul ? 10:30:28 10° N 10:34:28 43° WNW 10:37:26 17° SW visible
02 Jul ? 09:03:26 10° NE 09:06:29 19° E 09:08:36 14° SE visible
02 Jul ? 10:38:11 10° N 10:42:02 36° WNW 10:45:06 15° SW visible
03 Jul ? 09:10:46 10° NE 09:14:09 23° E 09:16:16 16° SE visible
03 Jul ? 10:45:55 10° N 10:49:36 30° WNW 10:52:47 13° SW visible
04 Jul ? 09:18:10 10° NE 09:21:48 27° E 09:23:56 18° SE visible
04 Jul ? 10:53:41 10° NNW 10:57:09 25° WNW 11:00:26 11° WSW visible
